Weather History for KWRI - February, 2013

Change the Weather History Date:

Tuesday, February 19, 2013

  Actual Average Record
Temperature  
Mean Temperature 38 °F -  
Max Temperature 50 °F 43 °F 68 °F (1997)
Min Temperature 26 °F 25 °F 7 °F (2015)
Degree Days  
Heating Degree Days 27    
Moisture  
Dew Point 37 °F    
Average Humidity 82    
Maximum Humidity 100    
Minimum Humidity 47    
Precipitation  
Precipitation 0.23 in - - ()
Sea Level Pressure  
Sea Level Pressure 29.82 in    
Wind  
Wind Speed 9 mph (SW)    
Max Wind Speed 25 mph    
Max Gust Speed 31 mph    
Visibility 9 miles    
Events Rain    
Averages and records for this station are not official NWS values.
T = Trace of Precipitation, MM = Missing Value Source: NWS Daily Summary

Daily Weather History Graph

Daily Weather History Graph

Search for Another Location

Airport or City:

Trip Planner

Search our weather history database for the weather conditions in past years. The results will help you decide how hot, cold, wet, or windy it might be!

Date:

Astronomy

Feb. 19, 2013 Rise Set
Actual Time 6:45 AM EST 5:39 PM EST
Civil Twilight 6:18 AM EST 6:06 PM EST
Nautical Twilight 5:46 AM EST 6:38 PM EST
Astronomical Twilight 5:15 AM EST 7:09 PM EST
Moon 12:08 PM EST (2/19) 2:15 AM EST (2/19)
Length of Visible Light 11h 48m
Length of Day
10h 53m
Waxing Gibbous, 67% of the Moon is Illuminated
Feb 19
Waxing Gibbous
Feb 25
Full
Mar 4
Last Quarter
Mar 11
New
Mar 19
First Quarter

Hourly Weather History & Observations

Time (EST) Temp. Windchill Dew Point Humidity Pressure Visibility Wind Dir Wind Speed Gust Speed Precip Events Conditions
12:55 AM 26.4 °F - 12.6 °F 56% 30.19 in 10.0 mi Calm Calm - N/A   Clear
1:55 AM 28.4 °F - 14.9 °F 57% 30.16 in 10.0 mi Calm Calm - N/A   Clear
2:55 AM 30.0 °F 21.7 °F 17.2 °F 59% 30.13 in 10.0 mi SSW 9.2 mph - N/A   Clear
3:55 AM 30.7 °F 26.0 °F 19.8 °F 64% 30.12 in 10.0 mi SSW 4.6 mph - N/A   Clear
4:55 AM 30.6 °F - 20.1 °F 65% 30.09 in 10.0 mi Calm Calm - N/A   Clear
5:55 AM 29.8 °F - 19.9 °F 67% 30.07 in 10.0 mi Calm Calm - N/A   Clear
6:55 AM 30.9 °F 26.2 °F 21.2 °F 67% 30.05 in 10.0 mi South 4.6 mph - N/A   Clear
7:55 AM 34.0 °F 27.2 °F 22.8 °F 64% 30.06 in 10.0 mi SSW 8.1 mph - N/A   Clear
8:55 AM 39.0 °F 32.3 °F 24.1 °F 55% 30.02 in 10.0 mi South 10.4 mph - N/A   Clear
9:55 AM 44.8 °F 38.0 °F 25.3 °F 47% 29.99 in 10.0 mi SSW 15.0 mph 25.3 mph N/A   Scattered Clouds
10:55 AM 50.4 °F - 30.7 °F 47% 29.96 in 10.0 mi SSW 25.3 mph 31.1 mph N/A   Mostly Cloudy
11:55 AM 48.2 °F - 31.1 °F 52% 29.95 in 10.0 mi SW 20.7 mph 28.8 mph N/A   Overcast
12:10 PM 48.2 °F - 32.0 °F 54% 29.95 in 10.0 mi SW 18.4 mph - N/A Rain Light Rain
12:55 PM 44.1 °F 38.6 °F 38.5 °F 81% 29.89 in 10.0 mi South 10.4 mph 16.1 mph 0.01 in Rain Light Rain
1:55 PM 44.4 °F 40.0 °F 41.7 °F 90% 29.85 in 10.0 mi South 8.1 mph - 0.01 in Rain Light Rain
2:07 PM 44.6 °F 39.2 °F 42.8 °F 93% 29.84 in 10.0 mi South 10.4 mph - N/A Rain Light Rain
2:55 PM 45.0 °F 39.7 °F 43.2 °F 93% 29.79 in 10.0 mi South 10.4 mph - 0.03 in Rain Light Rain
2:58 PM 44.6 °F 39.2 °F 42.8 °F 93% 29.79 in 9.0 mi South 10.4 mph - N/A Rain Light Rain
3:02 PM 44.6 °F 39.7 °F 42.8 °F 93% 29.79 in 9.0 mi South 9.2 mph - N/A Rain Light Rain
3:39 PM 44.6 °F 39.2 °F 44.6 °F 100% 29.76 in 8.0 mi South 10.4 mph 19.6 mph N/A Rain Light Rain
3:42 PM 44.6 °F 38.4 °F 44.6 °F 100% 29.76 in 7.0 mi SSW 12.7 mph 19.6 mph N/A Rain Light Rain
3:46 PM 44.6 °F 38.8 °F 44.6 °F 100% 29.75 in 6.0 mi South 11.5 mph 19.6 mph N/A Rain Light Rain
3:51 PM 44.6 °F 38.8 °F 44.6 °F 100% 29.75 in 6.0 mi South 11.5 mph 19.6 mph N/A Rain Light Rain
3:55 PM 45.5 °F 39.9 °F 43.9 °F 94% 29.75 in 7.0 mi South 11.5 mph - 0.04 in Rain Light Rain
4:50 PM 46.4 °F 40.7 °F 44.6 °F 93% 29.73 in 5.0 mi SW 12.7 mph 26.5 mph N/A Rain Light Rain
4:53 PM 46.4 °F 40.7 °F 44.6 °F 93% 29.73 in 4.0 mi SW 12.7 mph 26.5 mph N/A Rain Rain
4:55 PM 45.9 °F 40.0 °F 44.6 °F 95% 29.73 in 4.0 mi SW 12.7 mph - 0.06 in Rain Rain
5:11 PM 46.4 °F 41.1 °F 44.6 °F 93% 29.73 in 5.0 mi SW 11.5 mph - N/A Rain Rain
5:28 PM 46.4 °F 41.9 °F 44.6 °F 93% 29.72 in 5.0 mi WSW 9.2 mph - N/A Rain Rain
5:29 PM 46.4 °F 42.4 °F 44.6 °F 93% 29.72 in 5.0 mi WSW 8.1 mph - N/A Rain Rain
5:43 PM 46.4 °F 42.4 °F 44.6 °F 93% 29.72 in 4.0 mi WSW 8.1 mph - N/A Rain Light Rain
5:55 PM 45.3 °F 40.6 °F 44.6 °F 97% 29.72 in 9.0 mi West 9.2 mph - 0.08 in Rain Light Rain
6:08 PM 44.6 °F 40.7 °F 44.6 °F 100% 29.72 in 10.0 mi WSW 6.9 mph - N/A Rain Light Rain
6:15 PM 44.6 °F 40.2 °F 44.6 °F 100% 29.71 in 10.0 mi WSW 8.1 mph - N/A Rain Light Rain
6:29 PM 44.6 °F 41.4 °F 44.6 °F 100% 29.71 in 10.0 mi SW 5.8 mph - N/A   Overcast
7:20 PM 46.4 °F 41.5 °F 44.6 °F 93% 29.70 in 10.0 mi WSW 10.4 mph - N/A   Overcast
7:33 PM 46.4 °F 40.7 °F 44.6 °F 93% 29.70 in 10.0 mi West 12.7 mph - N/A Rain Light Rain
7:55 PM 45.5 °F 37.8 °F 42.4 °F 89% 29.71 in 10.0 mi West 19.6 mph 24.2 mph 0.00 in   Light Drizzle
7:58 PM 44.6 °F 36.6 °F 42.8 °F 93% 29.70 in 10.0 mi West 19.6 mph 24.2 mph N/A   Overcast
8:01 PM 44.6 °F 37.8 °F 42.8 °F 93% 29.70 in 10.0 mi West 15.0 mph 24.2 mph N/A   Overcast
8:11 PM 44.6 °F 38.1 °F 41.0 °F 87% 29.71 in 10.0 mi West 13.8 mph - N/A   Overcast
8:12 PM 44.6 °F 38.1 °F 41.0 °F 87% 29.71 in 10.0 mi West 13.8 mph - N/A   Overcast
8:15 PM 44.6 °F 38.1 °F 41.0 °F 87% 29.71 in 10.0 mi West 13.8 mph - N/A   Overcast
8:37 PM 44.6 °F 38.4 °F 41.0 °F 87% 29.71 in 10.0 mi West 12.7 mph - N/A   Overcast
8:44 PM 44.6 °F 38.4 °F 41.0 °F 87% 29.72 in 10.0 mi West 12.7 mph - N/A   Overcast
8:55 PM 43.7 °F 38.1 °F 39.9 °F 87% 29.72 in 10.0 mi WNW 10.4 mph - 0.00 in   Overcast
9:46 PM 42.8 °F 36.2 °F 35.6 °F 76% 29.74 in 10.0 mi WNW 12.7 mph 23.0 mph N/A   Overcast
9:55 PM 42.3 °F 34.8 °F 36.0 °F 78% 29.74 in 10.0 mi WNW 15.0 mph 21.9 mph N/A   Overcast
9:58 PM 42.8 °F 35.8 °F 35.6 °F 76% 29.74 in 10.0 mi WNW 13.8 mph 21.9 mph N/A   Overcast
10:55 PM 39.7 °F 32.3 °F 29.3 °F 66% 29.76 in 10.0 mi WNW 12.7 mph 24.2 mph N/A   Mostly Cloudy
11:55 PM 37.2 °F 29.1 °F 26.4 °F 65% 29.77 in 10.0 mi WNW 12.7 mph 20.7 mph N/A   Clear